Dewpoint
55 51 45 44 45 44 44 43 43 47 51 50 50 49 50 50 50 51 51 51 51 52 53 53 55 55 56 58 60 61 63 66 65 66 66 66 65 66 68 69 73 75 73 74
52 45 46 46 46 45 45 44 44 47 50 50 51 49 52 50 48 50 51 48 48 48 51 54 54 54 54 57 60 62 63 65 66 65 68 66 66 67 68 70 73 75 74 75
45 44 46 44 41 41 42 43 44 45 49 50 51 50 50 51 49 50 49 49 47 47 47 50 53 54 55 56 58 60 64 66 68 68 68 69 68 70 68 69 70 73 74 75
44 44 42 40 38 40 40 44 45 46 45 41 45 41 50 50 50 49 49 49 48 49 50 50 51 53 53 55 57 60 63 67 68 70 69 70 66 65 67 69 71 72 74 74
42 41 41 40 42 41 43 47 44 45 44 44 43 39 48 49 48 48 49 49 48 49 49 50 51 52 53 55 55 58 64 68 69 71 71 68 68 65 67 68 73 75 75 75
41 42 41 40 43 44 48 46 46 45 41 36 39 39 42 47 47 48 48 49 50 49 50 51 52 53 54 55 57 59 65 70 70 71 72 71 69 69 67 69 68 68 70 71
35 36 38 41 40 46 46 40 35 34 33 30 40 40 38 43 45 48 48 49 50 50 51 51 52 53 55 56 58 60 64 69 70 70 70 71 71 73 72 72 68 70 68 69
30 28 34 39 39 37 41 37 34 33 30 30 45 38 42 45 47 50 49 48 50 51 50 51 53 54 56 58 59 61 63 68 68 70 71 72 73 68 69 70 68 67 68 69
29 30 32 35 39 39 42 40 38 34 36 37 31 35 41 46 47 52 51 50 51 52 51 52 52 53 55 57 59 62 64 66 67 67 71 73 73 72 70 72 72 68 71 70
31 30 29 31 37 40 39 42 35 35 32 30 28 34 33 43 47 53 52 53 52 54 53 53 52 52 53 54 55 60 61 63 64 65 69 70 71 73 73 73 73 71 71 74
28 23 28 31 32 31 37 36 35 31 32 30 27 32 39 47 50 51 53 54 55 54 54 54 55 55 55 56 56 57 60 62 64 66 68 70 71 71 72 71 72 73 73 75
25 20 18 25 29 29 28 29 28 26 32 35 32 33 43 48 50 52 55 56 57 56 57 57 58 59 60 59 61 62 64 63 65 69 71 70 70 71 68 70 71 74 75 76
21 22 19 16 23 29 27 25 28 25 30 30 30 32 48 50 52 55 57 59 60 60 60 59 61 63 64 64 66 69 71 70 69 69 69 68 69 69 68 69 70 74 77 77
40 18 17 16 23 26 27 25 28 24 23 25 27 31 45 49 51 55 57 59 60 61 61 61 62 63 65 69 74 75 71 72 72 68 68 70 70 71 71 71 73 74 77 74
33 26 25 21 18 25 23 21 23 30 29 29 30 30 40 46 51 53 56 58 59 59 59 60 61 66 70 72 73 74 74 74 73 73 70 73 73 73 75 76 76 77 75 74
30 30 29 29 24 23 22 19 22 28 30 31 32 34 35 43 52 53 55 58 58 59 59 60 62 66 68 71 72 74 75 75 74 73 73 75 75 76 77 77 77 75 74 74
29 28 31 27 25 26 26 25 24 25 27 29 28 40 43 46 53 54 54 57 57 58 60 63 66 67 68 69 70 72 75 76 77 76 77 77 77 76 76 75 75 75 74 74
33 33 31 28 35 28 23 31 29 27 27 26 32 37 47 46 53 53 54 55 57 59 63 66 66 66 65 67 69 73 74 75 75 76 76 76 76 75 75 75 74 74 74 73
33 33 32 31 28 26 25 30 31 31 28 26 31 37 47 48 53 55 54 55 60 63 66 63 61 61 66 67 71 71 71 72 73 73 74 74 74 74 73 73 73 73 72 72
34 35 34 33 31 27 30 28 34 36 34 30 28 42 51 53 52 55 57 59 63 63 60 58 59 63 65 67 67 67 69 71 72 73 73 73 73 73 72 73 73 72 72 70
37 38 34 32 32 28 28 39 44 36 30 42 47 52 54 55 52 60 60 64 61 59 58 56 58 60 64 65 64 65 66 68 70 71 72 73 73 73 73 73 73 72 70 70
37 37 30 34 34 32 37 44 39 37 45 48 52 56 58 56 61 62 64 61 59 59 57 57 58 60 63 64 65 65 67 69 71 72 72 73 72 68 70 73 72 72 72 71
35 35 32 31 33 41 43 41 44 45 45 52 55 56 59 61 63 63 62 59 58 58 58 56 57 61 63 64 64 66 71 71 71 72 71 71 71 70 72 72 72 68 70 66
42 38 36 35 39 38 42 42 46 49 49 51 53 57 59 60 63 63 59 57 57 58 59 58 59 61 64 66 67 68 72 71 71 71 71 71 69 69 70 66 66 64 63 64
41 45 42 39 41 44 46 44 45 49 53 53 54 57 60 61 63 62 59 58 58 60 60 62 63 64 65 68 69 69 71 71 70 70 68 67 64 67 68 69 66 66 69 62
45 44 41 36 43 46 43 44 47 51 53 55 56 58 59 62 64 62 59 59 59 61 64 66 67 68 68 68 70 71 71 71 69 66 63 62 62 64 63 64 66 55 55 52
Lifted_Index
-4 -4 -3 -2 -2 -2 -2 -2 -2 -2 -2 -2 -2 -1 -1 0 1 0 -0 0 1 1 1 1 0 -0 -0 -1 -1 -1 -2 -2 -2 -2 -3 -2 -2 -3 -3 -4 -5 -5 -5 -5
-4 -3 -2 -2 -2 -2 -2 -3 -3 -2 -2 -2 -2 -2 -1 -0 0 0 -0 0 1 1 0 0 -0 -0 -1 -1 -1 -1 -1 -1 -2 -2 -3 -2 -2 -3 -3 -4 -5 -5 -5 -5
-3 -3 -2 -2 -2 -2 -3 -3 -3 -2 -2 -2 -2 -2 -2 -1 -0 0 -0 -0 0 0 -0 -0 -0 -1 -0 -0 -0 -0 -1 -1 -2 -2 -2 -2 -2 -3 -3 -4 -5 -5 -5 -5
-2 -2 -2 -2 -2 -2 -2 -2 -2 -2 -2 -2 -2 -2 -2 -2 -1 -0 -0 -0 -0 -0 -0 -0 -1 -1 -0 -0 -0 -0 -1 -2 -2 -2 -2 -2 -2 -3 -3 -4 -5 -5 -6 -6
-2 -2 -1 -1 -1 -2 -2 -2 -2 -2 -2 -2 -2 -2 -2 -2 -1 -1 -1 -0 -1 -1 -1 -1 -1 -1 -1 -0 -0 -0 -1 -2 -2 -3 -3 -2 -2 -2 -3 -4 -5 -5 -5 -6
-1 -1 -1 -1 -1 -1 -2 -2 -2 -2 -2 -2 -1 -1 -2 -2 -2 -1 -1 -1 -1 -1 -1 -1 -1 -1 -1 -1 -1 -1 -2 -3 -3 -3 -3 -3 -2 -3 -3 -4 -4 -4 -5 -5
-1 -1 -0 -1 -1 -1 -2 -2 -2 -2 -1 -1 -1 -1 -2 -2 -2 -2 -1 -1 -1 -1 -1 -1 -1 -1 -1 -1 -1 -2 -2 -3 -3 -3 -3 -3 -3 -3 -3 -3 -4 -4 -4 -4
-0 -0 0 -0 -1 -1 -1 -1 -1 -1 -1 -1 -1 -1 -1 -1 -2 -2 -2 -1 -1 -1 -1 -1 -1 -1 -1 -1 -2 -2 -3 -3 -4 -4 -4 -3 -3 -3 -3 -3 -4 -4 -4 -4
0 0 1 1 0 -0 -1 -1 -1 -1 -1 -1 -1 -0 -1 -1 -2 -2 -2 -2 -2 -1 -1 -1 -1 -1 -1 -1 -2 -2 -3 -3 -4 -4 -4 -4 -4 -4 -4 -4 -4 -4 -4 -5
1 1 1 1 1 -0 -1 -1 -1 -1 -1 -1 -0 -0 -0 -1 -2 -3 -3 -3 -2 -2 -2 -2 -1 -1 -1 -1 -2 -2 -3 -3 -4 -4 -4 -4 -5 -5 -5 -5 -5 -5 -5 -6
1 1 1 1 1 0 0 -0 -0 -0 -0 -0 -0 -0 -1 -2 -3 -3 -3 -3 -3 -2 -2 -2 -2 -2 -2 -2 -2 -2 -3 -3 -3 -4 -4 -4 -5 -5 -5 -5 -5 -6 -6 -6
1 1 0 0 1 1 1 1 1 0 -0 -0 -0 -0 -1 -2 -3 -3 -3 -3 -3 -2 -2 -1 -2 -3 -3 -3 -3 -4 -4 -4 -4 -4 -4 -5 -5 -5 -5 -5 -6 -7 -7 -7
1 1 0 -0 0 1 1 1 1 1 0 -0 -0 -0 -1 -2 -3 -3 -3 -3 -3 -3 -2 -1 -2 -3 -4 -5 -5 -6 -6 -6 -5 -5 -5 -5 -6 -6 -6 -6 -7 -8 -8 -8
1 0 -0 -1 -0 0 0 1 1 1 0 0 0 -0 -1 -2 -3 -3 -4 -4 -3 -3 -2 -2 -2 -3 -5 -6 -7 -8 -8 -8 -7 -6 -5 -6 -6 -7 -7 -7 -8 -8 -8 -7
0 0 -0 -0 -0 -0 -0 0 1 1 1 1 1 0 -0 -2 -3 -3 -4 -4 -3 -3 -3 -2 -3 -4 -6 -7 -8 -9 -9 -8 -8 -6 -6 -6 -7 -7 -8 -8 -9 -8 -7 -7
0 0 -0 -0 -0 -0 -0 -0 0 1 1 1 1 0 -0 -1 -3 -3 -3 -4 -3 -3 -3 -3 -4 -5 -6 -7 -8 -8 -9 -9 -8 -7 -7 -7 -7 -8 -9 -8 -8 -8 -7 -6
0 0 -0 -0 -0 -0 -0 -0 -0 0 0 1 1 0 -1 -2 -3 -3 -3 -3 -3 -4 -4 -5 -5 -5 -6 -6 -7 -8 -8 -8 -8 -8 -8 -8 -8 -8 -8 -8 -7 -7 -6 -6
-0 -0 -0 -0 -1 -0 -0 -0 -0 -0 -0 0 1 -0 -1 -2 -3 -3 -3 -3 -4 -4 -5 -5 -5 -5 -5 -5 -6 -7 -7 -8 -8 -8 -8 -8 -8 -7 -7 -6 -6 -6 -6 -6
0 -0 -0 -1 -1 -1 -0 -0 -0 -0 -0 0 0 -0 -2 -3 -4 -4 -4 -4 -5 -5 -5 -5 -4 -3 -4 -5 -5 -6 -6 -6 -6 -6 -6 -7 -6 -6 -6 -6 -5 -5 -5 -5
0 0 -0 -1 -0 -0 -0 -1 -1 -1 -0 -0 -1 -2 -3 -4 -4 -5 -5 -5 -5 -5 -4 -3 -2 -3 -4 -4 -4 -4 -4 -5 -5 -5 -5 -5 -5 -5 -5 -5 -5 -5 -4 -4
0 -0 -0 -0 -0 -0 -1 -1 -1 -1 -1 -1 -2 -3 -4 -4 -5 -5 -5 -6 -5 -4 -2 -2 -2 -2 -3 -3 -3 -3 -3 -4 -4 -4 -4 -5 -5 -4 -5 -5 -4 -4 -3 -3
-0 -0 0 -0 -0 -0 -1 -2 -2 -2 -2 -3 -4 -5 -5 -6 -6 -6 -6 -5 -4 -3 -2 -1 -2 -2 -3 -3 -2 -2 -3 -3 -4 -4 -4 -4 -4 -4 -4 -4 -4 -4 -3 -3
-0 0 0 0 0 -0 -1 -2 -2 -3 -3 -3 -4 -5 -6 -7 -7 -7 -6 -4 -3 -2 -2 -2 -2 -2 -3 -3 -2 -3 -3 -4 -4 -4 -4 -4 -3 -3 -3 -3 -3 -3 -3 -2
-0 -0 0 1 1 -0 -1 -2 -3 -3 -3 -4 -5 -6 -6 -7 -8 -7 -5 -4 -3 -3 -3 -3 -3 -3 -3 -3 -3 -3 -4 -4 -4 -4 -3 -3 -3 -3 -3 -3 -3 -2 -2 -2
-1 -1 0 1 0 -1 -1 -2 -3 -3 -4 -4 -4 -5 -6 -7 -8 -7 -5 -4 -3 -3 -4 -4 -4 -4 -3 -3 -3 -3 -4 -4 -3 -3 -2 -2 -2 -2 -2 -2 -2 -2 -1 -1
-1 -1 -0 0 0 -1 -1 -2 -3 -4 -4 -4 -5 -5 -6 -7 -8 -7 -5 -4 -3 -4 -5 -5 -5 -4 -4 -3 -3 -3 -3 -3 -3 -2 -2 -2 -2 -2 -2 -2 -2 -1 -1 -0